Weather in Stepnoye

Russia / Primorsky Krai     43˚58′26″N   131˚48′37″E
temp.,
°C
wind,
m/s
gust,
m/s
humid.,
%
clouds,
%
prec.,
mm/h
press.,
hPa
HPBL,
m
17 january, sun
sun1701:00−25˚wnw11830 0.0 102620
04:00−25˚wnw11830 0.0 102520
07:00−25˚wsw118459 0.0 102420
10:00−24˚sw118559 0.0 102420
13:00−17˚wsw247775 0.0 1021386
16:00−15˚ene117880 0.0 1019152
19:00−19˚sse228670 0.0 102020
22:00−20˚s129151 0.0 101920
18 january, mon
mon1801:00−20˚s128679 0.0 101720
04:00−19˚s128690 0.0 101522
07:00−18˚wsw1282100 0.0 101420
10:00−17˚w238586 0.0 101433
13:00−12˚w68658 0.0 10141390
16:00−14˚nw687219 0.1 10131216
19:00−17˚nw4881100 0.0 1018219
22:00−23˚wnw5137199 0.0 1022514
19 january, tue
tue1901:00−26˚wnw510780 0.0 1026203
04:00−28˚wnw347924 0.0 102770
07:00−29˚wnw23780 0.0 103130
10:00−27˚wsw12810 0.0 103333
13:00−21˚wsw12700 0.0 1034428
16:00−20˚se22740 0.0 1033235
19:00−25˚e12820 0.0 103520
22:00−27˚nw00800 0.0 103519
20 january, wed
wed2001:00−27˚s11800 0.0 103419
04:00−27˚wsw01820 0.0 103319
07:00−26˚ssw11800 0.0 103220
10:00−23˚ssw11813 0.0 103121
13:00−17˚s22760 0.0 1028205
16:00−12˚sse25894 0.0 1024293
19:00−14˚s239243 0.0 102449
22:00−14˚s239270 0.0 102342
21 january, thu
thu2101:00−13˚sw228649 0.0 102224
04:00−13˚wnw128647 0.0 102421
07:00−15˚wnw11880 0.0 102520
10:00−14˚ssw01870 0.0 102720
13:00−9˚ne22820 0.0 1025241
16:00−7˚ne238517 0.0 1022361
19:00−13˚nne339448 0.0 102225
22:00−15˚n229254 0.0 102321